GW5178 Weather Reports


Display with metric or nautical units.
time (UTC)temp
F
wind
direction
speed
MPH
gust
MPH
rain 1hr
in
rain 24hr
in
rain mn
in
humidity
%
barometer
mb
20260503020355 67 238 2.0 3.0 0.00 0.00 0.00 17 1015.6
20260503015851 68 239 2.0 3.0 0.00 0.00 0.00 17 1015.6
20260503015348 68 232 3.0 4.0 0.00 0.00 0.00 16 1015.8
20260503014844 68 227 2.0 4.0 0.00 0.00 0.00 16 1015.8
20260503014342 69 212 2.0 3.0 0.00 0.00 0.00 15 1015.4
20260503013839 69 220 2.0 4.0 0.00 0.00 0.00 15 1015.6
20260503013336 69 223 2.0 4.0 0.00 0.00 0.00 15 1015.5
20260503012833 70 213 3.0 4.0 0.00 0.00 0.00 15 1015.6
20260503012331 70 215 3.0 4.0 0.00 0.00 0.00 15 1015.4
20260503011828 70 200 3.0 4.0 0.00 0.00 0.00 15 1015.4
20260503011325 70 234 3.0 4.0 0.00 0.00 0.00 14 1015.8
20260503010821 71 196 4.0 4.0 0.00 0.00 0.00 15 1015.6
20260503010319 71 204 4.0 8.0 0.00 0.00 0.00 15 1015.8
20260503005815 71 230 3.0 4.0 0.00 0.00 0.00 15 1015.6
20260503005313 71 204 3.0 4.0 0.00 0.00 0.00 15 1015.8
20260503004809 71 191 3.0 6.0 0.00 0.00 0.00 15 1015.9
20260503004307 72 212 3.0 4.0 0.00 0.00 0.00 14 1015.6
20260503003804 72 246 2.0 6.0 0.00 0.00 0.00 14 1015.6
20260503003300 72 195 0.0 5.0 0.00 0.00 0.00 14 1015.9
20260503002757 72 205 3.0 5.0 0.00 0.00 0.00 14 1015.8
20260503002254 72 229 2.0 4.0 0.00 0.00 0.00 15 1015.8
20260503001750 72 232 5.0 8.0 0.00 0.00 0.00 14 1015.9
20260503001247 73 218 3.0 5.0 0.00 0.00 0.00 15 1015.8
20260503000745 73 222 5.0 6.0 0.00 0.00 0.00 14 1016.1
20260503000242 73 209 3.0 8.0 0.00 0.00 0.00 15 1015.8
20260502235739 72 226 1.0 5.0 0.00 0.00 0.00 15 1015.9
20260502235237 72 213 6.0 6.0 0.00 0.00 0.00 15 1015.9
20260502234732 72 271 4.0 7.0 0.00 0.00 0.00 15 1015.9
20260502234230 71 297 0.0 3.0 0.00 0.00 0.00 15 1016.0
20260502233726 72 247 8.0 11.0 0.00 0.00 0.00 15 1015.9
20260502233223 73 223 9.0 10.0 0.00 0.00 0.00 15 1015.8
20260502232718 73 235 2.0 3.0 0.00 0.00 0.00 15 1015.8
20260502232216 73 227 4.0 7.0 0.00 0.00 0.00 15 1016.0
20260502231713 73 122 2.0 4.0 0.00 0.00 0.00 15 1016.2
20260502231210 73 307 5.0 7.0 0.00 0.00 0.00 15 1016.3
20260502230709 73 259 5.0 12.0 0.00 0.00 0.00 15 1016.2
20260502230207 72 295 5.0 9.0 0.00 0.00 0.00 15 1016.2
20260502225702 73 243 11.0 14.0 0.00 0.00 0.00 15 1016.2
20260502225200 75 225 3.0 5.0 0.00 0.00 0.00 14 1016.3
20260502224655 75 236 5.0 7.0 0.00 0.00 0.00 14 1016.5
20260502224152 72 40 5.0 7.0 0.00 0.00 0.00 14 1016.5
20260502223650 74 300 3.0 14.0 0.00 0.00 0.00 14 1016.7
20260502223148 77 229 5.0 6.0 0.00 0.00 0.00 13 1016.3
20260502222646 75 218 4.0 12.0 0.00 0.00 0.00 14 1016.7
20260502222142 73 224 5.0 7.0 0.00 0.00 0.00 14 1016.6
20260502221637 72 126 5.0 8.0 0.00 0.00 0.00 14 1016.9
20260502221135 75 198 6.0 7.0 0.00 0.00 0.00 14 1016.7
20260502220631 76 277 2.0 4.0 0.00 0.00 0.00 14 1016.9
20260502220127 76 230 5.0 6.0 0.00 0.00 0.00 14 1017.0
20260502215625 75 198 5.0 7.0 0.00 0.00 0.00 14 1017.0
20260502215122 76 216 5.0 7.0 0.00 0.00 0.00 14 1016.9
20260502214619 75 194 5.0 13.0 0.00 0.00 0.00 14 1017.3
20260502214116 77 204 3.0 7.0 0.00 0.00 0.00 14 1017.5
20260502213613 73 223 2.0 6.0 0.00 0.00 0.00 16 1017.4
20260502213110 73 239 10.0 13.0 0.00 0.00 0.00 15 1017.5
20260502212609 74 228 8.0 13.0 0.00 0.00 0.00 15 1017.5
20260502212107 76 221 7.0 12.0 0.00 0.00 0.00 15 1017.3
20260502211602 72 328 1.0 6.0 0.00 0.00 0.00 15 1017.5
20260502211059 74 213 3.0 10.0 0.00 0.00 0.00 15 1017.6
20260502210556 75 191 2.0 6.0 0.00 0.00 0.00 15 1017.7
20260502210054 75 277 3.0 6.0 0.00 0.00 0.00 15 1017.7
20260502205550 74 212 3.0 8.0 0.00 0.00 0.00 15 1017.7
20260502205048 74 229 7.0 8.0 0.00 0.00 0.00 15 1017.7
20260502204544 73 239 8.0 8.0 0.00 0.00 0.00 15 1017.6
20260502204042 73 217 4.0 5.0 0.00 0.00 0.00 15 1018.2
20260502203538 72 228 4.0 6.0 0.00 0.00 0.00 16 1018.1
20260502203036 70 327 3.0 7.0 0.00 0.00 0.00 17 1018.1
20260502202531 72 236 9.0 11.0 0.00 0.00 0.00 16 1018.2
20260502202030 72 220 5.0 16.0 0.00 0.00 0.00 16 1018.3
20260502201526 74 207 4.0 13.0 0.00 0.00 0.00 16 1018.3
20260502201022 74 188 3.0 8.0 0.00 0.00 0.00 15 1018.1
20260502200518 74 186 5.0 5.0 0.00 0.00 0.00 16 1018.3
20260502200016 74 182 2.0 4.0 0.00 0.00 0.00 15 1018.6
20260502195514 74 210 4.0 5.0 0.00 0.00 0.00 16 1018.3
20260502195009 73 231 4.0 5.0 0.00 0.00 0.00 16 1018.4
20260502194506 73 199 8.0 12.0 0.00 0.00 0.00 16 1018.3
20260502194002 72 208 5.0 10.0 0.00 0.00 0.00 17 1018.3
20260502193500 72 205 3.0 7.0 0.00 0.00 0.00 16 1018.6
20260502192955 73 170 2.0 7.0 0.00 0.00 0.00 16 1018.8
20260502192452 72 197 3.0 12.0 0.00 0.00 0.00 17 1018.7
20260502191949 71 189 2.0 13.0 0.00 0.00 0.00 17 1018.9
20260502191447 71 238 13.0 16.0 0.00 0.00 0.00 17 1018.7
20260502190944 69 267 3.0 10.0 0.00 0.00 0.00 17 1018.8
20260502190441 70 221 2.0 14.0 0.00 0.00 0.00 17 1019.0
20260502185938 70 228 9.0 15.0 0.00 0.00 0.00 17 1018.9
20260502185433 70 182 2.0 8.0 0.00 0.00 0.00 17 1019.1
20260502184930 69 226 3.0 15.0 0.00 0.00 0.00 17 1019.1
20260502184426 69 247 7.0 17.0 0.00 0.00 0.00 18 1019.3
20260502183922 72 204 8.0 9.0 0.00 0.00 0.00 17 1019.1
20260502183419 70 205 3.0 4.0 0.00 0.00 0.00 18 1019.4
20260502182914 70 201 5.0 18.0 0.00 0.00 0.00 18 1019.3
20260502182410 71 213 7.0 12.0 0.00 0.00 0.00 19 1019.5
20260502181906 69 116 4.0 9.0 0.00 0.00 0.00 19 1019.5
20260502181405 71 195 4.0 9.0 0.00 0.00 0.00 19 1019.4
20260502180903 71 233 2.0 5.0 0.00 0.00 0.00 19 1019.6
20260502180400 69 128 3.0 5.0 0.00 0.00 0.00 20 1019.6
20260502170318 63 205 3.0 5.0 0.00 0.00 0.00 21 1020.7
20260502164306 62 204 2.0 3.0 0.00 0.00 0.00 21 1020.4
20260502163801 60 192 4.0 4.0 0.00 0.00 0.00 22 1020.7
20260502163258 60 222 4.0 5.0 0.00 0.00 0.00 21 1020.8
20260502162755 59 118 3.0 3.0 0.00 0.00 0.00 21 1021.0
20260502162252 59 87 3.0 6.0 0.00 0.00 0.00 22 1021.0
20260502161749 59 36 3.0 4.0 0.00 0.00 0.00 23 1020.8
20260502161245 57 196 3.0 5.0 0.00 0.00 0.00 23 1020.9
20260502160743 58 88 5.0 7.0 0.00 0.00 0.00 23 1020.9
20260502160242 56 66 4.0 5.0 0.00 0.00 0.00 24 1021.1
20260502152206 50 60 6.0 10.0 0.00 0.00 0.00 29 1020.9
20260502151704 50 73 4.0 9.0 0.00 0.00 0.00 29 1021.0
20260502151201 50 96 3.0 9.0 0.00 0.00 0.00 29 1021.1
20260502150658 48 56 5.0 11.0 0.00 0.00 0.00 30 1020.9
20260502150154 49 38 8.0 8.0 0.00 0.00 0.00 30 1021.1
20260502140118 43 73 6.0 9.0 0.00 0.00 0.00 36 1021.0
20260502130543 40 27 4.0 6.0 0.00 0.00 0.00 37 1020.5
20260502123526 39 135 0.0 3.0 0.00 0.00 0.00 38 1020.2
20260502123023 37 271 0.0 3.0 0.00 0.00 0.00 40 1020.4
20260502122519 36 139 0.0 3.0 0.00 0.00 0.00 42 1020.2
20260502122017 34 281 0.0 3.0 0.00 0.00 0.00 46 1020.3
20260502121514 32 151 2.0 4.0 0.00 0.00 0.00 48 1020.3
20260502121011 32 113 0.0 2.0 0.00 0.00 0.00 49 1020.3
20260502120507 32 71 0.0 3.0 0.00 0.00 0.00 47 1020.1
20260502115501 36 93 2.0 2.0 0.00 0.00 0.00 43 1020.1
20260502114958 36 36 0.0 2.0 0.00 0.00 0.00 42 1020.3
20260502114454 37 130 2.0 3.0 0.00 0.00 0.00 41 1020.2
20260502113951 37 92 1.0 2.0 0.00 0.00 0.00 41 1020.0
20260502113449 37 240 0.0 3.0 0.00 0.00 0.00 40 1020.0
20260502112948 39 105 0.0 2.0 0.00 0.00 0.00 39 1020.0
20260502112445 38 330 0.0 2.0 0.00 0.00 0.00 41 1020.0
20260502111942 36 304 0.0 2.0 0.00 0.00 0.00 42 1020.2
20260502111439 33 269 0.0 1.0 0.00 0.00 0.00 46 1020.2
20260502110936 33 147 0.0 2.0 0.00 0.00 0.00 46 1020.3
20260502110434 35 146 2.0 2.0 0.00 0.00 0.00 45 1020.4
20260502105931 33 156 0.0 2.0 0.00 0.00 0.00 46 1020.3
20260502105429 32 244 2.0 2.0 0.00 0.00 0.00 48 1020.2
20260502104927 31 3 1.0 1.0 0.00 0.00 0.00 49 1020.4
20260502104424 32 40 1.0 2.0 0.00 0.00 0.00 48 1020.5
20260502103921 32 48 0.0 1.0 0.00 0.00 0.00 48 1020.3
20260502103419 34 231 2.0 2.0 0.00 0.00 0.00 47 1020.4
20260502102915 34 156 1.0 2.0 0.00 0.00 0.00 46 1020.2
20260502102411 34 168 2.0 2.0 0.00 0.00 0.00 45 1020.1
20260502101909 34 154 2.0 3.0 0.00 0.00 0.00 45 1020.3
20260502101408 35 160 2.0 3.0 0.00 0.00 0.00 45 1020.1
20260502100906 37 119 3.0 3.0 0.00 0.00 0.00 43 1020.2
20260502100405 35 130 0.0 1.0 0.00 0.00 0.00 44 1020.0
20260502091338 34 258 1.0 2.0 0.00 0.00 0.00 44 1020.3
20260502090836 33 158 0.0 3.0 0.00 0.00 0.00 45 1020.3
20260502090332 35 253 2.0 3.0 0.00 0.00 0.00 43 1020.5
20260502071227 43 214 2.0 3.0 0.00 0.00 0.00 34 1020.5
20260502070725 44 326 0.0 1.0 0.00 0.00 0.00 34 1020.4
20260502070223 44 238 2.0 2.0 0.00 0.00 0.00 34 1020.5
20260502065721 43 359 1.0 1.0 0.00 0.00 0.00 34 1020.4
20260502065218 45 196 0.0 1.0 0.00 0.00 0.00 33 1020.4
20260502064717 45 31 0.0 1.0 0.00 0.00 0.00 33 1020.2
20260502064215 45 179 0.0 2.0 0.00 0.00 0.00 33 1020.4
20260502063712 46 310 0.0 2.0 0.00 0.00 0.00 31 1020.3
20260502063209 48 315 0.0 3.0 0.00 0.00 0.00 30 1020.2
20260502062706 49 236 1.0 2.0 0.00 0.00 0.00 29 1020.4
20260502062204 50 139 1.0 4.0 0.00 0.00 0.00 28 1020.4
20260502061702 51 108 3.0 4.0 0.00 0.00 0.00 27 1020.5
20260502061159 51 356 3.0 5.0 0.00 0.00 0.00 27 1020.4
20260502060654 50 331 1.0 2.0 0.00 0.00 0.00 27 1020.2
20260502060151 51 0 4.0 4.0 0.00 0.00 0.00 26 1020.1
20260502055648 52 253 3.0 3.0 0.00 0.00 0.00 26 1020.2
20260502055146 53 334 4.0 6.0 0.00 0.00 0.00 26 1020.4
20260502054645 52 234 0.0 4.0 0.00 0.00 0.00 26 1019.8
20260502054142 54 355 5.0 8.0 0.00 0.00 0.00 24 1020.2
20260502053639 53 2 4.0 8.0 0.00 0.00 0.00 25 1020.1
20260502053136 53 349 5.0 8.0 0.00 0.00 0.00 25 1019.8
20260502052635 55 261 1.0 8.0 0.00 0.00 0.00 23 1020.0
20260502052132 54 9 4.0 7.0 0.00 0.00 0.00 24 1020.2
20260502051630 57 353 7.0 8.0 0.00 0.00 0.00 23 1020.0
20260502051128 53 349 3.0 6.0 0.00 0.00 0.00 25 1020.1
20260502050624 54 315 6.0 7.0 0.00 0.00 0.00 24 1019.7
20260502050121 53 352 4.0 4.0 0.00 0.00 0.00 25 1019.8
20260502045617 53 326 1.0 4.0 0.00 0.00 0.00 25 1019.7
20260502045116 55 340 3.0 5.0 0.00 0.00 0.00 24 1019.6
20260502044612 50 276 3.0 5.0 0.00 0.00 0.00 28 1019.7
20260502044109 49 247 0.0 2.0 0.00 0.00 0.00 29 1019.7
20260502043607 46 307 2.0 3.0 0.00 0.00 0.00 31 1019.7
20260502043103 47 80 0.0 2.0 0.00 0.00 0.00 30 1019.6
20260502042602 47 199 2.0 2.0 0.00 0.00 0.00 30 1019.7
20260502042100 46 351 2.0 2.0 0.00 0.00 0.00 32 1019.7
20260502041558 48 30 0.0 1.0 0.00 0.00 0.00 30 1019.4
20260502041054 48 354 1.0 3.0 0.00 0.00 0.00 29 1019.5
20260502040551 47 102 0.0 3.0 0.00 0.00 0.00 30 1019.6
20260502040048 48 81 2.0 3.0 0.00 0.00 0.00 30 1019.7
20260502035544 49 32 0.0 3.0 0.00 0.00 0.00 29 1019.4
20260502035042 51 252 2.0 5.0 0.00 0.00 0.00 27 1019.5
20260502034540 47 357 1.0 2.0 0.00 0.00 0.00 31 1019.5
20260502034038 48 304 1.0 5.0 0.00 0.00 0.00 29 1019.4
20260502033536 48 269 4.0 5.0 0.00 0.00 0.00 29 1019.1
20260502033033 49 257 2.0 3.0 0.00 0.00 0.00 29 1019.1
20260502032528 49 357 2.0 3.0 0.00 0.00 0.00 28 1019.0
20260502032026 50 27 0.0 3.0 0.00 0.00 0.00 28 1019.0
20260502031523 50 320 1.0 2.0 0.00 0.00 0.00 27 1018.9
20260502031021 51 359 0.0 4.0 0.00 0.00 0.00 27 1019.1
20260502030520 51 91 0.0 5.0 0.00 0.00 0.00 28 1019.0
20260502030017 51 263 4.0 4.0 0.00 0.00 0.00 27 1018.8
20260502025514 53 256 2.0 4.0 0.00 0.00 0.00 25 1018.7
20260502025013 55 269 2.0 3.0 0.00 0.00 0.00 23 1018.8
20260502024509 57 261 3.0 3.0 0.00 0.00 0.00 22 1018.7
20260502024008 58 243 1.0 2.0 0.00 0.00 0.00 23 1018.7
20260502023500 60 233 0.0 1.0 0.00 0.00 0.00 21 1018.9
20260502022957 61 248 1.0 2.0 0.00 0.00 0.00 20 1018.6
20260502022453 63 224 0.0 3.0 0.00 0.00 0.00 19 1018.7
20260502021950 65 206 1.0 3.0 0.00 0.00 0.00 18 1018.7
20260502021448 67 230 2.0 2.0 0.00 0.00 0.00 18 1018.7
20260502020944 67 232 1.0 2.0 0.00 0.00 0.00 17 1018.7